Wind_Speed
10 9 9 9 9 9 9 10 10 10 10 11 11 11 12 12 11 11 11 11 10 9 9 10 10 9 9 10 10 10 10 9 7 7 11 11 9 12 7 10 14 17 21 17 14 13 11 10 10 10 8 6 4 2 2 2 2 3 3 2 1 1 2 2 3 5 8 12 11 11 11 12 13 10 9 9 10 11 11 9 9 8 9 14 19 22 23 20
10 10 10 9 10 10 10 10 10 10 10 11 11 11 11 11 12 11 11 11 9 8 9 10 9 9 9 10 9 9 10 8 10 11 12 10 8 11 10 12 15 20 21 17 16 14 12 10 11 11 8 5 3 2 1 1 1 3 4 2 2 4 3 3 3 5 8 12 12 10 11 11 13 12 9 10 11 11 11 11 11 13 15 18 21 22 21 19
10 10 10 10 10 10 10 11 10 10 10 10 11 11 11 11 11 11 11 10 8 8 9 9 9 9 10 9 8 8 10 9 10 6 3 5 9 12 12 15 16 22 22 18 17 14 11 10 12 11 7 4 3 2 2 1 1 2 3 2 4 4 6 6 3 4 8 12 12 10 11 11 12 11 9 11 13 12 11 11 12 15 17 19 20 21 21 19
11 11 10 10 10 10 11 11 11 10 10 10 10 10 11 11 11 10 11 9 8 8 8 9 8 9 9 7 6 8 9 9 3 4 4 4 7 13 14 17 17 21 19 16 15 11 10 10 11 10 6 4 3 3 2 2 1 1 3 4 5 3 6 8 3 5 10 12 11 11 12 12 12 9 9 12 12 9 9 11 13 17 20 20 20 21 20 18
11 11 10 10 10 11 11 11 11 11 10 10 10 10 10 10 11 10 10 9 8 8 8 8 8 9 7 5 5 6 7 6 3 5 3 5 6 15 16 19 19 19 16 15 14 10 10 10 10 8 6 4 4 4 2 1 3 2 3 5 6 5 6 7 4 8 11 10 10 12 12 12 10 9 11 10 6 7 8 10 14 18 20 21 21 21 19 18
11 10 10 10 11 11 11 12 12 11 11 11 10 10 9 9 10 11 10 8 7 7 8 8 8 8 5 4 5 4 7 2 4 4 4 5 6 16 17 20 20 17 15 16 15 11 11 11 10 7 6 5 4 3 1 1 3 1 5 6 6 7 7 7 7 9 10 10 10 10 10 11 11 10 9 6 6 8 9 10 15 18 19 21 21 20 18 17
11 10 10 10 11 12 13 13 13 12 11 11 10 10 9 8 9 10 10 7 5 6 8 8 8 5 3 4 3 5 7 1 6 7 7 4 11 18 18 21 20 17 16 17 16 12 11 11 10 7 5 4 4 2 2 1 2 2 5 7 7 9 8 8 8 9 9 9 9 8 10 11 11 11 8 6 9 10 10 12 16 19 20 20 19 18 17 17
10 9 10 10 11 12 13 14 14 12 11 11 10 9 9 8 7 8 9 8 5 5 7 8 6 3 4 3 4 5 5 3 9 8 8 1 16 20 20 21 18 17 17 18 16 13 11 12 10 6 5 3 1 0 1 2 1 2 4 7 7 9 9 9 8 9 9 7 7 9 10 9 9 9 8 8 10 11 13 14 16 19 19 17 16 16 16 16
11 9 9 10 11 12 13 13 13 12 12 12 11 10 9 8 8 7 8 7 5 5 6 5 2 3 4 2 7 5 2 6 9 5 4 7 19 21 20 19 17 18 17 16 15 14 11 10 10 5 3 2 0 1 1 2 1 2 4 6 8 10 9 10 9 8 8 6 7 10 10 9 9 9 8 8 10 13 14 15 17 18 17 16 15 15 15 15
11 9 9 10 11 12 13 13 12 12 12 12 11 11 10 8 8 7 7 6 6 5 3 2 2 4 2 4 7 3 5 7 7 4 6 11 19 20 18 16 17 17 16 15 14 14 10 8 8 3 2 1 0 1 1 1 3 4 5 8 9 9 9 9 10 7 7 7 7 8 9 10 9 4 5 8 10 14 15 15 16 16 16 15 14 14 15 15
11 9 10 10 11 12 12 13 13 12 12 12 12 11 10 8 8 7 5 5 6 5 2 2 3 3 3 6 7 1 6 6 6 5 10 13 16 17 15 15 16 15 15 13 13 12 8 6 7 4 2 1 1 0 2 2 4 6 7 10 9 8 8 8 10 8 6 4 2 6 9 9 6 2 6 11 11 13 15 15 16 16 15 15 15 14 13 14
12 10 10 10 11 12 13 13 13 12 13 12 11 10 8 7 6 5 3 4 5 3 2 3 3 2 5 7 4 2 3 4 4 7 11 12 11 11 12 15 12 12 14 12 11 9 5 5 8 6 1 0 3 2 4 2 3 7 7 7 9 8 7 6 7 7 6 3 2 3 8 7 6 5 10 12 11 13 14 14 15 15 14 14 14 12 11 13
13 12 11 11 12 13 14 14 14 13 13 12 9 7 6 5 3 2 1 2 3 1 2 3 3 1 7 4 1 2 2 2 4 10 10 10 10 9 10 12 9 8 10 10 11 8 4 4 8 6 1 3 1 3 2 3 4 7 6 4 8 7 5 5 5 7 7 5 1 1 4 7 7 8 12 11 12 14 13 14 14 13 13 13 13 11 11 13
14 13 13 13 12 13 14 14 14 14 12 10 7 5 4 2 0 1 1 0 0 1 3 5 3 3 6 0 4 1 0 3 6 11 10 11 12 10 9 8 8 7 6 6 8 7 4 3 5 4 3 4 1 1 4 5 5 6 5 5 6 4 5 5 5 9 8 4 3 0 1 5 7 10 12 11 12 14 13 13 14 13 13 12 12 12 11 12
15 14 14 13 13 13 14 14 14 13 11 9 5 3 2 1 1 2 2 2 2 3 5 4 1 4 6 1 4 1 4 6 7 10 10 11 11 10 10 9 8 8 6 5 6 6 4 3 4 4 4 3 3 5 6 6 6 5 3 5 5 4 6 6 6 8 7 5 5 3 1 2 6 10 12 11 12 13 12 13 14 14 14 13 12 11 11 12
15 14 14 14 13 14 14 14 14 11 9 6 3 2 3 3 3 3 4 4 4 5 5 1 2 4 5 2 6 3 5 6 7 9 9 8 8 9 11 11 10 9 8 6 6 7 6 6 4 4 3 4 6 7 6 6 6 5 4 4 5 6 7 7 7 8 7 7 7 5 3 2 4 9 11 11 12 12 11 12 14 14 14 13 11 11 10 11
16 14 14 14 13 14 14 14 13 10 7 5 2 3 4 4 4 4 4 5 4 5 2 3 2 5 3 3 6 4 5 6 6 9 9 6 6 11 13 10 10 10 9 8 7 8 8 7 4 3 5 5 5 6 6 7 6 6 6 3 4 6 7 7 8 8 9 9 8 6 3 3 5 9 11 12 12 11 10 12 14 13 13 13 11 11 11 10
16 14 14 13 13 14 14 14 12 8 7 4 3 4 4 4 5 4 3 5 3 3 4 3 3 4 2 5 4 4 6 6 7 9 9 8 8 12 12 9 10 11 10 9 8 9 8 7 6 6 6 6 5 7 7 4 4 6 6 3 5 5 5 6 7 10 11 10 9 9 5 4 7 10 11 12 12 12 11 11 13 13 13 12 11 11 11 11
17 14 13 12 12 12 13 14 10 6 5 4 5 4 5 5 4 2 4 5 4 3 1 2 3 3 1 5 3 5 5 6 9 10 10 10 10 10 10 9 11 12 10 8 8 9 8 6 7 7 7 8 8 8 5 1 2 5 5 2 5 6 5 5 7 10 12 9 9 11 7 5 9 11 11 12 12 11 11 11 11 12 12 12 11 11 11 11
17 14 12 11 11 11 12 12 7 4 3 6 5 3 3 1 1 3 4 6 5 5 4 2 4 5 1 3 3 4 6 7 7 9 11 11 12 12 10 10 10 10 9 8 9 8 8 8 8 8 9 9 8 6 3 2 3 5 6 3 3 4 5 6 7 10 11 8 8 11 9 7 10 12 12 12 12 12 12 12 12 12 12 11 12 12 12 12
17 14 11 10 11 11 11 9 3 2 2 6 4 4 2 5 4 3 2 4 4 4 6 4 4 7 4 2 1 1 5 7 6 10 12 11 13 12 9 10 10 8 9 9 9 7 8 8 10 11 7 5 6 4 2 2 3 5 6 4 3 2 4 6 6 10 11 7 6 9 8 10 12 12 12 11 12 13 13 13 13 14 13 11 12 13 12 11
17 13 10 9 10 10 11 6 0 1 2 5 5 5 4 6 5 3 5 4 2 1 4 3 4 6 6 5 4 4 4 7 10 11 11 11 12 9 7 10 10 8 9 10 8 7 8 9 11 11 5 3 4 4 3 2 3 5 5 5 3 1 3 5 6 9 10 5 5 9 7 9 11 11 11 12 13 13 12 13 13 14 14 12 12 12 12 11
16 12 9 8 9 10 10 3 3 1 3 5 5 4 3 4 4 3 6 6 1 3 2 3 4 4 4 3 4 7 8 9 11 11 11 11 8 6 9 10 9 9 11 11 9 9 9 9 10 9 5 6 5 5 5 4 4 4 4 6 4 2 3 2 7 9 9 5 5 9 7 6 9 9 9 11 12 10 10 11 10 11 13 13 12 12 12 13
15 11 8 8 8 9 9 0 4 1 3 6 7 3 3 4 4 4 5 5 1 3 1 0 2 2 0 1 5 9 7 6 8 11 13 11 6 7 9 9 9 10 11 13 12 11 7 3 7 9 6 8 6 7 8 6 5 3 3 5 5 7 6 3 6 8 9 8 7 8 5 5 9 9 9 9 9 9 10 10 9 11 13 12 12 12 12 13
13 10 7 7 7 7 7 1 5 2 3 6 6 4 3 6 3 5 5 4 4 4 2 3 1 1 2 1 5 6 5 6 6 11 13 11 7 6 6 6 7 9 12 14 13 11 6 5 6 9 8 7 6 7 8 7 5 4 5 4 5 8 4 2 7 8 6 7 9 9 5 4 9 12 11 9 9 11 11 13 13 13 13 12 12 12 12 13
11 9 7 6 6 6 5 1 3 3 5 4 2 3 4 6 2 4 5 3 5 3 2 4 1 2 2 4 6 5 7 7 4 9 13 9 5 4 4 6 5 5 11 12 9 7 6 7 8 10 10 9 8 7 7 7 6 3 6 6 5 6 3 3 7 7 5 2 7 11 6 0 4 9 12 12 12 14 13 14 15 13 12 12 12 12 13 13
10 8 7 6 5 4 3 2 2 5 4 1 1 2 5 5 4 4 5 3 6 2 1 3 1 1 2 3 6 5 6 10 6 8 10 7 6 5 5 7 4 5 8 7 6 4 6 8 8 9 11 10 8 7 6 8 7 2 6 5 7 6 5 7 7 7 4 1 5 11 7 1 2 7 13 16 15 15 14 15 15 12 12 13 13 13 14 14
9 8 8 7 5 6 5 4 6 6 2 1 2 4 5 4 5 4 5 2 6 2 1 3 2 0 1 4 5 4 6 11 8 8 8 7 6 5 5 7 7 8 9 7 5 6 8 9 8 10 10 8 9 7 5 9 8 3 5 2 5 6 8 9 8 6 3 2 4 8 8 4 1 5 12 16 15 15 16 16 15 14 14 14 14 15 15 14
9 8 8 7 7 7 5 5 6 4 2 4 5 5 4 4 5 6 4 4 3 1 1 2 2 3 3 5 5 4 8 6 3 7 9 7 5 5 2 5 7 9 10 11 5 5 6 7 6 9 8 7 9 6 4 9 7 3 2 3 4 6 8 8 7 5 2 5 5 7 10 6 1 5 8 11 12 13 14 14 14 16 16 15 15 15 15 14
8 8 8 7 6 5 6 6 6 5 5 6 5 4 5 5 5 4 2 4 2 1 2 1 1 3 6 7 5 5 7 4 4 9 9 5 6 4 1 2 4 6 8 10 7 4 6 3 2 7 7 4 6 4 4 8 7 1 3 6 5 5 5 5 5 4 4 6 4 6 10 6 2 4 7 7 8 11 13 12 12 15 17 17 15 15 16 15
8 8 7 7 5 4 6 3 2 4 6 5 3 4 6 5 4 1 6 3 1 2 1 1 3 3 6 5 5 6 6 6 7 10 8 6 6 5 4 4 4 5 6 7 7 5 7 5 4 6 7 5 4 4 5 5 6 5 7 7 5 4 4 5 5 4 6 6 1 2 7 6 4 3 6 8 6 8 12 13 14 16 18 18 16 15 16 15
7 7 6 7 7 7 6 4 4 8 7 5 4 5 6 2 1 5 6 1 2 2 1 2 3 2 3 3 4 6 4 5 7 7 6 7 6 5 4 4 5 6 5 6 8 7 7 8 7 7 7 8 8 7 6 5 6 8 8 7 7 6 5 6 7 6 7 5 2 3 5 6 4 0 5 8 7 7 9 11 15 17 19 20 18 16 15 14
5 5 5 6 6 6 7 8 10 10 7 5 5 6 5 2 6 4 3 1 2 3 2 0 1 1 2 4 5 4 2 4 4 5 4 5 5 4 1 2 2 4 3 6 7 6 7 9 10 9 7 9 11 8 7 6 8 9 8 7 8 7 7 8 8 6 6 5 4 3 3 4 4 2 3 5 5 5 7 9 13 17 20 20 19 18 16 15
3 3 3 4 5 6 8 8 8 8 5 6 7 5 1 5 5 1 3 6 4 2 1 1 2 3 2 2 5 3 2 4 4 4 6 6 5 5 4 3 3 5 2 5 4 4 7 6 10 12 8 10 13 10 7 6 8 10 9 8 9 8 7 7 7 6 6 5 6 6 4 3 3 4 4 3 3 4 5 7 10 13 16 17 18 18 17 16
2 2 3 5 6 9 9 7 6 6 5 6 5 1 3 5 4 2 5 6 3 2 2 2 4 6 4 3 4 2 2 2 4 5 5 6 4 4 4 4 3 4 3 3 2 3 5 1 7 11 6 10 15 13 9 6 6 9 9 9 9 8 7 5 5 6 5 4 5 6 4 1 3 5 5 3 4 5 6 7 10 12 13 14 15 17 16 15
2 2 3 4 6 10 9 6 7 6 6 6 2 4 5 4 4 5 5 5 5 4 1 5 4 4 5 5 5 4 1 0 5 5 3 3 3 3 1 3 2 3 4 3 2 3 5 2 8 9 6 10 14 13 12 9 4 6 8 10 8 6 7 6 6 5 5 6 5 6 6 3 5 5 5 4 4 5 5 8 11 11 13 14 14 15 16 16
1 1 1 3 7 10 9 8 10 7 7 4 3 5 3 3 5 5 5 5 4 4 5 3 1 2 3 6 5 6 5 4 5 5 4 4 3 3 1 2 2 2 4 5 2 1 3 2 8 8 10 11 8 8 13 12 7 4 6 10 7 3 6 6 6 6 6 8 5 6 8 8 6 4 3 5 5 5 5 8 10 11 12 14 14 15 16 17
2 3 1 5 11 12 9 12 12 8 5 1 5 5 2 3 5 5 6 5 3 4 5 1 2 2 2 4 5 5 6 6 5 5 4 4 2 3 1 1 3 1 3 5 4 1 3 4 7 7 8 10 7 7 10 12 12 7 4 6 8 5 6 7 6 7 7 8 6 7 7 8 7 4 5 6 5 6 5 7 10 11 12 12 13 14 15 15
3 5 2 6 13 12 10 12 10 6 1 3 5 4 2 4 6 6 5 4 4 4 3 3 2 1 1 1 4 5 4 4 5 6 3 1 2 3 3 1 2 2 1 5 5 1 3 5 4 6 5 8 9 8 8 9 11 9 6 5 7 6 6 7 7 7 7 8 7 7 7 7 4 2 6 7 6 5 6 6 8 10 10 10 11 13 13 12
3 3 3 7 13 11 10 10 6 1 3 3 3 4 2 3 5 6 6 5 4 4 4 3 2 1 2 1 3 3 1 2 5 4 3 2 3 4 3 3 2 3 2 4 4 2 3 3 2 6 8 7 8 9 10 8 10 11 8 7 8 6 6 6 7 8 7 8 7 6 7 4 2 4 6 8 6 4 4 6 7 8 9 10 11 13 14 14
3 2 4 7 11 9 8 6 0 2 3 4 4 5 3 4 4 5 5 4 4 4 5 5 4 2 2 2 3 3 2 3 4 2 3 2 1 3 4 4 5 2 1 4 3 2 3 3 4 4 7 7 6 7 7 5 5 10 10 9 9 8 7 6 8 9 7 8 6 6 7 2 4 3 4 7 6 4 4 5 6 7 8 9 10 12 14 14
4 1 4 7 10 8 7 1 4 1 2 4 3 3 3 3 4 5 5 4 4 3 3 4 5 4 2 2 3 2 2 3 3 2 3 4 4 5 5 5 5 4 4 2 2 2 2 3 5 5 5 3 4 4 3 5 5 7 8 10 9 8 9 9 8 8 7 9 8 5 6 1 5 2 4 5 5 5 5 6 6 6 6 7 9 11 12 12
1 2 3 6 10 8 6 2 4 1 4 4 2 3 3 3 4 5 5 6 5 4 3 4 5 4 4 3 2 2 2 3 3 3 4 6 7 7 6 5 4 4 4 2 2 2 2 3 4 5 4 1 4 4 3 2 6 9 8 9 8 7 9 8 8 7 7 10 8 6 7 3 5 3 3 5 5 6 5 5 6 6 5 6 7 8 9 10
2 2 2 4 8 6 5 1 2 2 5 3 3 5 4 5 7 6 7 8 6 5 4 5 5 4 4 3 2 3 2 1 3 4 3 4 5 5 5 5 4 3 2 3 2 0 2 2 3 5 6 6 6 6 6 6 8 8 5 4 5 7 8 6 6 5 6 10 10 9 8 3 6 3 4 5 6 6 5 5 5 6 6 6 5 6 7 8
0 1 2 3 5 2 1 3 2 2 4 3 3 5 3 4 6 5 6 7 7 6 4 4 4 3 3 2 2 3 3 1 2 3 3 4 5 5 5 6 5 4 4 5 5 3 2 2 3 6 7 6 5 4 3 4 6 4 2 1 3 8 9 7 6 6 7 8 8 10 7 4 7 6 6 7 6 6 6 6 5 5 5 6 6 6 6 6
2 2 2 2 3 3 3 2 2 1 3 1 2 3 2 4 5 4 5 5 6 7 5 4 3 1 2 2 2 4 4 2 2 3 3 3 4 5 6 5 5 6 4 3 5 4 2 1 1 3 2 0 2 3 3 2 2 3 2 1 3 5 7 7 8 8 8 7 8 9 7 4 7 8 8 8 8 7 7 6 6 5 5 6 6 6 6 6
2 1 1 1 2 2 3 3 1 1 1 1 1 1 2 2 3 3 4 4 5 5 4 5 5 2 3 2 2 5 5 4 5 4 3 2 2 3 2 3 6 6 2 3 3 3 3 2 2 3 6 6 6 7 6 3 2 3 2 1 2 3 5 9 9 5 5 8 8 6 8 8 8 10 10 9 9 8 7 6 6 6 5 5 6 6 6 6
1 1 2 2 1 1 3 3 2 2 2 1 1 0 1 2 3 3 3 3 3 5 3 4 6 5 5 3 1 3 4 4 5 3 2 2 1 1 1 2 6 5 2 2 1 3 4 3 2 4 8 7 7 8 7 5 5 4 3 3 1 3 4 7 6 4 4 6 4 3 9 10 7 10 11 9 9 8 7 6 5 5 5 5 6 7 7 7
0 2 2 1 2 2 4 3 1 2 3 2 1 1 1 2 4 4 3 2 2 4 4 3 6 6 5 3 2 2 3 2 4 4 2 2 2 1 0 1 4 5 4 1 2 2 2 2 1 1 5 7 7 8 7 5 5 5 6 6 4 3 2 1 0 4 3 3 3 3 7 4 4 9 9 8 8 8 7 6 6 5 5 5 5 6 7 7
1 1 1 2 1 3 3 2 2 2 2 1 1 2 2 2 4 4 3 4 2 3 3 4 7 6 5 6 4 5 5 5 4 4 2 1 2 2 2 2 3 5 5 4 3 2 2 2 2 3 4 6 5 5 5 4 2 4 7 8 7 6 4 4 4 5 3 3 2 3 6 5 6 7 9 8 8 8 8 7 7 6 5 5 5 5 6 7
3 3 2 2 2 2 2 2 2 2 2 1 2 3 2 3 4 5 5 5 4 4 4 4 5 3 4 7 7 7 7 4 4 5 3 3 4 3 3 4 5 5 4 5 4 3 2 3 4 4 6 6 2 2 1 0 2 2 7 10 10 9 6 5 6 6 4 2 0 4 5 4 5 6 8 9 8 9 9 8 7 6 5 6 6 7 7 8
3 1 3 4 2 1 2 3 2 2 1 2 3 2 2 4 4 2 2 3 3 4 5 3 2 1 3 7 8 8 5 4 5 5 3 4 5 4 3 5 6 6 5 5 4 3 3 4 5 4 6 6 3 4 5 4 5 3 5 8 8 8 8 6 5 6 5 3 1 2 1 3 5 6 7 8 8 9 9 7 6 7 6 6 7 8 9 10
Wind_Direction
343 342 341 341 340 340 338 337 335 335 333 331 331 329 327 325 323 323 322 322 321 318 315 316 316 321 325 323 325 329 336 327 295 251 238 261 240 229 230 183 179 167 163 161 160 160 163 176 172 178 192 192 213 205 178 231 269 267 272 266 279 56 105 104 133 134 124 137 145 154 153 137 135 136 134 137 139 137 129 119 117 110 108 117 123 132 137 142
342 342 341 339 338 338 337 335 334 332 331 330 329 329 328 324 323 322 321 321 317 315 316 315 317 322 323 325 331 337 341 315 272 254 248 269 255 228 206 182 180 166 162 167 172 173 173 173 170 182 198 194 186 170 163 191 257 277 281 289 23 58 109 116 109 124 132 140 143 151 152 138 136 137 146 146 139 146 139 127 126 120 115 120 128 135 139 145
341 340 339 338 338 337 335 333 333 331 330 329 328 327 326 324 323 320 319 319 312 315 314 314 320 321 322 327 337 348 336 296 264 245 257 278 228 211 186 180 180 168 166 174 178 182 181 172 173 186 205 203 184 188 194 187 234 288 294 347 49 71 119 126 118 130 135 139 140 147 146 137 138 143 158 149 141 152 146 138 140 136 135 135 136 139 143 150
340 337 337 338 338 335 333 333 332 330 328 327 327 326 326 327 323 319 320 317 313 311 308 315 320 318 324 334 349 358 317 272 252 100 53 2 190 185 177 175 174 171 174 180 181 187 186 174 181 197 214 200 177 203 205 184 249 321 340 29 77 99 115 114 117 137 134 137 140 143 142 137 141 149 153 146 143 151 149 147 146 145 145 142 142 144 148 153
338 336 336 337 336 334 334 334 333 330 327 326 325 326 328 328 325 322 320 318 316 307 307 314 315 317 326 347 3 354 300 247 84 68 27 355 164 169 173 173 170 170 178 182 179 184 184 180 190 205 215 195 174 199 191 151 255 292 50 68 96 106 109 108 120 138 132 135 142 145 141 136 142 147 149 149 138 135 143 146 143 146 147 145 145 146 151 157
339 337 335 336 336 335 337 336 332 328 326 326 325 325 326 328 326 321 320 320 313 304 309 313 314 322 337 8 9 313 282 232 50 2 321 330 170 165 168 169 166 169 178 179 176 181 182 187 196 200 203 193 180 181 68 85 257 291 71 70 85 95 112 123 132 138 134 144 150 144 135 135 142 139 143 133 93 111 129 137 140 143 145 146 146 147 155 159
341 337 336 338 339 340 339 333 329 328 327 327 324 321 321 323 321 316 317 315 309 307 307 311 315 332 19 8 338 260 256 319 26 338 316 305 169 165 165 164 165 170 178 177 178 182 180 191 199 199 199 180 173 163 53 112 255 313 63 69 84 97 118 132 134 142 143 148 141 134 138 142 142 134 138 117 99 115 124 130 137 141 144 147 147 151 156 158
342 341 341 341 342 341 337 332 328 329 330 326 322 321 317 316 316 313 310 309 313 310 304 311 322 14 50 351 289 250 229 8 5 333 328 154 161 162 157 159 169 174 177 179 179 182 182 195 198 197 196 148 148 159 72 185 210 354 66 83 102 105 119 131 135 145 142 138 136 146 148 140 137 131 130 121 119 129 129 131 138 141 145 149 151 153 155 158
346 345 344 342 340 337 335 331 327 330 330 323 321 321 316 312 311 307 303 309 317 314 308 311 346 71 54 321 276 258 147 24 0 350 22 133 154 156 153 158 173 177 179 180 182 186 186 197 192 195 220 133 112 344 11 234 102 77 89 95 114 114 122 132 136 149 141 141 159 153 140 129 135 130 115 120 133 136 132 135 142 146 148 153 155 154 157 160
349 346 341 338 335 334 333 329 328 330 326 322 321 318 317 311 304 301 298 307 314 312 305 282 84 81 356 282 264 252 81 32 8 61 114 140 149 155 159 160 169 178 179 176 184 190 194 203 184 190 269 174 201 331 357 307 84 110 107 93 105 114 120 133 136 142 134 146 176 154 132 131 147 164 126 130 143 143 139 140 147 152 152 156 156 155 159 161
349 343 337 334 332 333 333 331 330 327 323 322 318 316 319 313 302 302 298 308 312 300 256 199 107 81 296 274 266 314 72 32 17 101 133 141 151 160 167 161 164 177 175 174 184 188 202 201 177 198 243 160 204 164 78 50 99 129 128 105 107 112 111 132 140 140 136 137 204 145 128 133 160 205 129 139 152 148 145 145 152 158 155 158 157 155 160 162
347 339 332 331 332 334 335 335 332 327 325 319 314 319 324 321 311 307 310 320 316 293 200 176 115 63 288 263 263 9 48 5 36 125 136 139 152 156 163 164 164 172 170 177 179 178 203 184 190 216 239 201 219 140 95 106 135 146 157 126 123 127 112 122 138 146 151 120 5 138 136 152 166 131 126 145 155 149 150 151 157 162 158 159 158 157 161 162
347 337 331 331 335 336 337 337 334 331 329 322 317 324 329 332 325 313 327 330 327 297 166 142 107 330 279 259 91 8 337 8 103 136 137 140 142 134 152 165 168 170 169 180 174 172 193 179 208 222 252 277 211 88 110 165 164 159 184 169 141 147 128 119 137 150 154 127 101 232 162 163 149 129 140 153 155 153 157 157 160 164 161 161 160 160 163 163
348 337 332 333 336 337 339 339 337 335 332 328 323 331 351 2 341 152 137 352 351 165 128 111 110 257 271 297 81 329 1 99 132 142 141 139 132 129 142 157 168 173 171 173 164 170 185 179 228 230 229 277 8 136 196 178 186 172 179 194 170 159 137 139 156 158 155 136 144 251 162 154 138 139 151 158 162 163 162 160 164 166 163 163 163 166 165 165
350 340 332 332 337 338 340 340 339 337 336 338 337 356 33 91 134 148 135 102 120 115 96 97 141 255 264 186 106 100 121 133 152 151 152 147 136 136 142 147 151 156 164 163 159 173 191 188 223 232 195 227 263 228 193 172 196 177 160 196 176 140 135 145 163 169 162 143 165 177 143 159 153 151 157 163 170 173 169 163 166 167 166 165 166 171 168 166
351 340 331 332 337 337 340 342 341 341 343 351 358 42 84 104 110 135 124 114 122 107 102 148 213 255 283 106 121 144 142 138 144 150 162 163 148 140 141 142 137 141 148 150 163 173 193 202 210 254 218 201 229 219 183 178 188 172 188 204 157 143 148 147 153 173 164 143 171 198 159 153 172 157 158 170 177 182 179 167 167 169 168 167 168 172 171 167
350 341 333 331 334 336 340 343 343 344 351 9 51 86 102 116 118 116 108 120 122 115 166 268 259 256 284 117 146 159 130 113 129 151 160 163 151 142 143 146 144 145 139 138 160 168 184 203 191 225 229 220 228 217 201 196 184 180 201 202 137 147 158 148 148 166 170 160 171 191 170 144 166 165 165 175 182 187 186 173 169 170 170 171 171 173 174 172
348 341 334 330 334 335 339 345 345 349 5 41 108 111 114 123 110 89 99 126 144 175 215 252 252 248 191 163 168 120 112 114 131 147 149 147 148 148 150 149 147 151 148 144 161 174 181 196 195 200 209 214 220 216 210 202 198 193 197 182 144 160 174 153 145 159 171 173 169 175 176 152 161 171 174 176 183 190 188 179 172 172 172 172 175 177 177 178
347 341 334 330 331 332 341 348 346 1 31 89 119 117 127 129 123 157 182 172 203 242 248 174 225 285 109 141 113 89 112 125 132 141 146 147 148 153 155 151 154 162 166 161 168 182 186 190 199 204 201 200 206 216 221 306 260 201 194 196 155 164 171 136 125 150 167 171 174 183 178 159 167 174 180 177 181 193 187 179 176 174 175 175 179 181 179 182
346 341 333 329 330 331 344 349 349 19 70 126 138 169 165 154 172 178 194 208 236 289 314 279 260 285 251 119 91 103 135 149 153 146 148 153 151 150 153 158 166 176 184 174 163 174 191 195 198 204 200 193 195 216 256 308 272 206 188 194 182 175 148 129 133 151 171 176 177 188 179 172 179 176 182 178 177 193 188 180 182 178 178 181 183 181 180 184
345 341 333 331 329 329 345 348 350 31 98 145 187 248 343 358 341 9 341 234 212 264 285 288 291 278 278 317 316 165 159 162 150 144 152 162 160 155 155 168 175 185 193 173 147 158 196 208 201 200 199 176 174 186 234 257 205 193 192 183 196 190 115 128 148 158 178 195 176 179 183 186 187 177 178 177 180 194 190 183 185 182 182 184 185 184 181 181
344 341 335 332 326 328 343 343 222 69 123 161 222 266 2 8 341 332 310 287 155 198 270 258 268 270 267 268 256 254 219 154 136 146 159 173 184 180 167 182 187 178 176 167 154 166 195 216 199 184 169 130 161 182 215 258 199 183 186 185 176 66 81 133 152 165 179 205 174 171 193 195 180 173 174 180 188 195 193 188 186 184 185 185 188 187 183 181
343 341 336 331 322 327 339 336 169 150 170 189 240 284 0 354 317 247 257 286 101 132 232 225 251 250 218 217 189 215 213 154 143 154 166 186 198 184 173 188 192 169 167 178 183 181 192 213 189 158 154 177 177 191 207 223 217 201 185 195 174 139 269 188 153 174 176 187 190 172 191 198 162 159 176 190 195 196 198 195 193 194 189 186 188 189 186 184
343 338 333 327 317 328 343 306 179 220 207 225 252 277 346 339 292 243 251 283 97 108 86 309 283 265 137 86 171 206 203 152 155 155 172 197 169 156 182 186 182 170 179 192 194 192 188 179 157 146 170 198 185 187 207 214 204 199 201 205 156 157 241 285 142 171 175 191 208 174 183 204 164 163 183 193 198 200 197 193 203 210 196 187 188 189 191 187
342 332 326 322 315 330 343 243 192 240 250 241 240 235 317 341 281 235 264 263 122 105 144 159 237 253 70 117 179 210 190 152 158 150 172 201 167 159 181 176 190 182 181 189 197 201 169 109 155 167 177 201 204 193 207 228 210 184 198 197 133 145 211 259 151 171 192 205 205 188 207 217 170 173 180 178 189 196 192 191 200 204 197 191 190 189 194 191
339 326 317 317 318 327 336 233 180 265 264 233 187 214 311 333 238 207 270 234 119 83 167 164 193 124 122 168 165 201 191 153 120 142 169 195 185 183 167 167 215 193 173 182 204 212 138 133 179 185 185 196 214 209 195 228 242 184 166 172 156 147 182 219 184 194 226 204 184 199 225 267 168 186 178 171 186 190 188 195 197 196 194 194 193 191 194 193
333 323 308 307 316 314 322 337 311 289 274 144 138 263 312 307 211 193 260 181 108 28 250 128 79 91 95 145 166 219 177 135 130 153 171 189 186 211 199 178 193 168 168 183 201 193 133 147 172 182 195 200 213 217 182 215 249 115 111 165 191 184 199 226 224 226 259 33 168 200 218 230 236 208 177 170 183 186 188 196 196 195 197 197 196 194 195 194
328 315 301 305 310 294 290 299 295 289 315 29 271 287 312 274 197 215 260 106 81 323 287 79 55 213 125 148 191 241 124 134 161 158 168 193 194 228 214 184 184 162 172 198 179 148 164 181 178 180 198 206 213 216 171 209 242 74 90 190 206 201 208 222 235 236 258 284 205 195 208 221 203 184 173 169 179 186 188 194 196 197 200 200 198 196 197 196
322 307 300 304 306 300 287 272 275 279 277 271 278 294 279 220 200 244 258 77 63 271 96 79 140 165 173 158 172 181 143 154 175 138 160 193 207 254 259 178 185 155 171 219 218 126 167 197 191 192 204 209 212 211 172 214 235 77 115 210 196 203 209 214 235 241 237 256 239 186 196 221 146 157 172 172 185 191 187 190 195 198 200 201 199 197 197 197
314 303 300 300 307 311 291 266 249 250 256 265 283 276 228 203 228 254 100 69 15 118 119 251 141 144 183 168 140 146 152 137 106 137 162 179 184 215 13 93 195 162 170 222 243 116 121 134 194 212 224 228 217 204 188 226 243 175 199 209 189 195 211 218 231 249 240 238 243 183 195 228 250 171 179 187 197 192 185 185 189 195 200 201 199 198 196 195
309 301 296 292 296 291 284 269 203 249 273 282 279 235 214 212 253 335 78 65 325 94 158 197 118 161 206 179 129 131 140 124 135 159 166 167 176 173 154 159 191 187 174 203 223 178 152 167 176 201 228 241 228 205 184 217 232 225 224 212 193 191 209 226 215 225 238 222 200 194 200 222 248 171 163 179 181 175 183 185 181 189 199 200 200 198 195 194
303 296 294 294 295 284 280 296 294 286 287 282 254 230 225 208 39 48 69 176 250 37 16 107 112 172 204 176 132 132 132 116 149 180 172 178 184 156 175 196 177 191 201 191 197 193 192 202 184 179 204 218 225 209 178 190 206 217 225 207 202 205 201 221 214 214 230 204 153 224 213 221 247 96 136 163 160 157 171 177 178 188 198 198 198 197 193 192
301 299 305 310 310 299 289 290 288 284 282 265 241 234 246 53 57 40 39 51 39 29 15 73 86 144 189 187 143 135 147 109 149 196 181 203 199 147 130 328 208 239 240 184 186 185 191 200 195 193 194 205 223 218 181 185 199 209 217 203 206 212 207 218 215 214 228 200 167 195 216 222 217 136 113 155 168 167 167 169 176 189 198 197 195 194 190 189
309 324 339 348 346 331 313 304 294 280 262 247 236 231 253 62 66 0 27 45 50 54 52 231 189 168 195 187 124 148 203 112 137 192 174 199 206 169 162 147 215 271 282 180 199 208 202 193 188 196 191 187 209 229 221 196 194 205 216 217 221 223 220 227 218 214 231 210 173 170 201 226 184 134 109 134 174 196 201 188 175 184 196 195 192 190 187 186
26 33 31 17 358 342 330 321 310 286 248 243 247 253 56 65 59 19 31 27 11 51 92 182 206 181 155 115 121 152 308 91 156 194 184 196 197 175 170 136 178 248 259 202 175 199 237 260 156 181 184 179 197 222 236 223 195 199 211 222 228 230 228 238 243 243 254 239 189 187 222 253 118 134 136 147 185 196 207 203 185 180 185 188 190 189 187 187
74 70 49 33 358 345 336 325 324 298 253 257 276 65 59 49 24 9 18 351 339 3 150 176 202 201 149 141 147 149 286 75 173 181 150 156 134 97 109 78 108 244 265 247 171 172 236 173 136 164 190 194 204 211 212 223 216 179 200 217 227 254 249 231 234 246 262 257 217 203 234 217 150 156 155 164 189 187 192 198 189 179 175 179 185 187 188 188
184 234 57 47 1 346 335 330 325 288 253 279 42 69 47 42 23 0 359 340 333 311 263 193 169 275 152 148 147 147 164 165 185 194 155 157 130 72 104 91 76 269 297 294 255 176 265 195 141 170 197 193 211 220 204 217 232 193 205 210 198 252 264 239 236 228 228 245 222 197 229 229 198 183 162 168 167 158 174 180 174 171 172 177 180 183 186 188
230 241 136 34 356 340 331 334 321 276 251 27 88 86 29 46 38 7 0 341 312 281 277 354 51 295 205 157 132 139 177 179 187 188 155 170 148 53 326 97 95 298 302 276 249 141 280 254 149 167 197 175 178 219 205 206 223 242 277 217 191 209 224 215 237 235 221 237 227 200 224 240 228 193 161 162 135 119 143 159 162 166 171 176 177 179 182 182
237 236 148 18 346 337 334 329 306 264 260 73 104 94 33 43 49 27 10 347 321 317 327 30 31 253 226 167 122 136 204 200 177 175 157 167 115 72 341 11 83 20 0 249 251 142 255 266 160 153 167 163 174 205 206 193 205 236 280 232 203 227 231 213 223 233 233 240 231 212 219 229 230 134 126 128 109 109 135 151 159 163 166 172 172 169 168 168
257 253 105 10 341 341 331 306 280 271 65 69 71 74 48 27 48 43 21 3 352 358 19 29 358 156 123 119 123 126 214 172 161 176 155 118 114 105 51 10 342 15 71 227 250 219 225 268 220 152 147 180 195 199 211 201 189 203 225 219 207 219 239 235 223 224 239 247 234 228 228 205 95 65 95 110 110 108 126 146 156 158 160 166 169 169 169 170
257 247 83 6 341 340 312 280 222 51 85 97 69 68 54 358 13 40 36 21 20 25 28 32 30 58 108 139 126 120 149 142 143 152 135 133 92 86 66 6 321 316 211 216 213 220 233 254 258 189 171 202 190 179 224 260 212 200 205 214 213 210 220 230 221 216 232 248 240 241 242 185 86 77 102 114 123 121 133 152 154 156 155 157 168 178 177 173
249 208 62 359 341 326 293 236 97 34 76 88 67 52 31 341 353 21 25 18 29 47 44 39 38 37 51 72 92 125 135 111 114 111 103 88 48 41 37 356 310 280 271 241 119 35 305 267 267 245 213 211 89 126 250 304 269 226 215 218 217 211 215 221 221 210 217 238 246 260 259 159 95 111 110 111 122 123 144 164 160 162 161 161 170 176 172 165
269 60 70 353 342 314 278 130 115 121 77 86 108 71 39 11 23 26 20 19 22 32 48 51 39 32 39 34 52 104 69 60 74 77 90 92 66 39 14 355 306 268 280 290 102 82 271 250 260 251 230 173 87 137 188 242 237 231 225 226 229 227 221 223 238 235 222 227 225 236 246 194 108 109 105 114 128 129 149 168 164 165 167 173 171 163 162 163
35 62 93 1 345 300 267 94 107 111 92 112 122 89 77 44 31 23 25 30 23 11 32 55 46 38 38 20 39 58 28 53 85 70 87 96 72 43 16 5 331 298 340 2 12 213 239 246 255 243 213 184 166 167 173 190 210 220 221 232 268 266 247 241 257 259 243 231 217 221 235 180 114 128 137 140 146 143 155 164 157 158 159 166 160 141 149 165
159 172 129 40 18 341 341 32 18 100 103 120 93 76 94 83 51 19 16 30 28 13 24 54 38 32 51 43 91 67 27 40 96 91 103 98 90 70 34 20 358 358 32 8 328 288 256 258 260 253 233 208 189 180 177 181 191 204 223 246 263 253 243 243 243 235 236 233 221 229 236 129 125 158 161 159 165 157 158 158 147 142 141 152 156 142 147 167
227 192 152 123 84 65 83 46 336 95 106 125 99 62 39 85 82 38 9 25 34 22 22 40 12 351 72 64 107 85 56 63 102 135 128 103 100 73 32 19 26 29 28 333 298 272 243 194 257 265 254 221 89 84 50 35 168 175 174 199 218 223 233 240 236 235 236 229 226 234 232 162 153 172 172 168 169 163 158 158 154 145 134 143 149 146 154 164
257 207 32 109 131 113 128 117 25 66 74 345 16 36 22 77 98 68 31 28 25 7 9 40 22 19 58 43 80 84 73 84 100 113 107 89 111 92 47 24 43 35 307 251 269 268 237 168 110 95 97 86 86 95 86 71 95 101 97 130 180 183 213 227 232 266 272 240 231 211 206 211 187 170 174 174 168 165 165 166 161 147 137 133 131 136 145 142
310 136 40 336 261 121 108 84 46 73 92 52 9 341 47 70 71 64 52 42 21 354 349 55 45 39 49 21 13 88 92 105 104 94 74 74 80 197 167 72 46 31 293 221 57 301 257 186 138 112 111 101 98 107 107 99 87 76 61 45 72 162 200 226 236 338 332 259 258 192 206 223 192 160 167 169 165 169 171 162 143 133 136 135 138 143 137 127
103 118 99 289 292 60 72 70 70 104 93 79 84 80 52 63 73 66 25 345 37 20 357 50 55 44 54 42 18 77 64 63 99 92 52 54 42 353 48 77 34 23 7 34 66 348 289 185 173 199 142 125 113 114 113 106 95 84 67 45 44 103 116 159 48 19 357 302 307 236 206 195 129 145 149 147 156 167 165 149 133 142 150 145 149 149 137 132
9 55 97 199 150 89 100 125 188 160 112 154 143 92 52 44 76 88 37 349 28 68 40 65 65 46 52 64 65 71 46 14 60 83 19 352 56 30 34 32 0 3 14 22 33 2 285 200 221 264 200 152 118 105 113 111 94 82 68 46 41 56 64 63 42 13 348 350 341 212 176 122 105 126 128 132 150 163 163 151 139 144 151 149 152 148 139 137
358 6 325 250 144 121 166 150 202 219 147 160 141 115 125 88 80 97 77 29 25 61 54 55 67 56 64 72 64 61 57 30 49 68 37 28 51 41 38 30 354 340 9 21 5 343 310 229 218 244 227 187 125 15 59 1 267 124 69 38 31 37 40 52 43 13 356 0 230 190 174 135 120 125 128 134 150 165 164 150 139 140 142 141 134 123 122 119
344 322 300 275 178 149 203 169 195 241 125 86 98 116 133 113 108 132 103 73 58 54 40 19 12 0 84 71 46 29 32 47 69 79 79 75 76 73 62 47 29 11 5 2 344 352 346 274 234 238 242 216 214 296 307 297 263 203 67 26 19 30 34 47 52 31 12 344 274 203 44 71 121 151 146 140 158 173 161 144 144 145 134 120 109 107 111 109
Height
809 809 808 807 806 805 805 804 803 802 801 800 799 798 797 797 796 795 795 794 794 793 793 792 791 791 790 790 789 789 789 789 789 789 787 781 780 782 782 784 785 786 788 790 792 792 791 791 791 791 791 789 788 787 787 786 786 793 801 805 805 803 806 807 806 805 804 810 812 809 808 812 818 815 809 809 813 815 817 817 814 813 812 814 819 823 827 831
809 808 807 806 806 805 804 803 802 801 800 799 798 798 797 796 795 794 794 793 793 793 792 792 791 790 790 789 789 788 788 788 788 785 781 778 778 780 781 783 784 786 788 790 790 789 790 790 789 790 789 790 788 787 790 788 789 798 800 800 802 804 807 806 804 801 801 807 809 808 807 809 814 814 809 816 822 819 821 822 818 820 820 820 822 826 829 831
808 808 807 806 805 804 804 803 802 801 800 799 798 797 796 795 795 794 793 793 792 792 791 791 790 790 789 789 788 788 788 787 785 780 777 776 776 778 781 783 784 785 787 789 789 788 788 788 788 789 789 791 788 789 794 791 792 796 797 805 806 801 803 803 803 801 799 802 808 810 807 809 811 808 809 816 822 820 822 822 821 825 826 824 824 826 830 832
808 808 807 806 805 804 803 802 801 800 799 799 797 796 796 795 794 793 793 792 792 791 791 790 790 789 789 788 788 788 788 787 781 776 775 775 775 777 780 782 783 786 787 788 789 788 788 787 788 787 789 793 789 789 795 793 793 793 797 808 806 800 804 805 803 801 798 801 807 809 809 812 809 806 809 814 822 824 820 817 817 822 823 823 824 826 829 832
808 807 806 805 805 804 803 802 801 800 799 798 797 796 795 794 793 793 792 792 791 791 790 789 789 788 788 788 788 788 789 787 778 773 776 775 774 777 779 781 783 786 787 789 789 788 788 787 787 788 791 795 792 793 795 790 788 794 796 799 797 799 807 807 803 801 800 802 806 808 811 811 807 808 810 814 821 823 816 812 812 816 819 821 822 825 829 831
808 807 806 805 804 803 802 801 800 799 798 797 796 795 795 794 793 792 792 791 791 790 790 789 789 788 788 788 788 789 789 785 776 774 776 774 775 776 778 781 783 786 788 788 788 788 789 787 790 793 793 794 795 796 795 788 786 796 797 792 793 798 806 808 804 803 802 806 809 808 807 806 809 814 812 813 817 814 809 808 810 813 817 820 822 825 828 830
807 806 805 804 803 803 801 801 800 798 797 796 796 795 794 793 792 792 791 791 791 790 789 788 788 788 788 788 789 788 785 780 774 775 774 773 775 775 778 782 784 787 787 786 787 787 788 789 792 792 793 796 795 794 794 790 788 795 800 797 796 798 804 807 805 804 804 807 807 804 805 808 813 816 813 815 815 810 808 807 809 814 817 821 823 826 828 831
807 806 805 804 803 802 801 800 799 798 797 796 795 794 793 793 792 791 790 790 790 790 789 788 788 788 788 789 788 784 780 777 775 775 774 773 775 776 779 782 785 786 785 786 785 785 787 791 791 789 795 797 792 792 791 793 794 797 801 800 797 800 804 805 806 807 806 808 806 805 809 811 811 812 815 817 814 810 809 809 811 815 818 822 825 827 829 831
807 806 805 804 803 802 801 800 798 797 796 795 794 793 792 792 791 791 790 789 790 790 788 788 788 788 789 789 786 782 778 776 776 775 774 774 776 778 780 782 785 785 785 785 784 785 787 789 788 788 794 793 790 792 789 796 802 797 798 798 798 802 803 805 809 808 807 808 807 809 814 812 808 810 819 818 812 811 809 812 814 816 821 824 825 827 830 832
807 805 804 804 802 801 800 799 798 796 795 794 793 792 792 791 791 790 790 789 789 789 788 788 788 788 790 789 785 782 778 776 777 776 776 777 778 780 781 782 784 784 784 785 784 784 784 784 784 782 788 789 789 792 790 794 797 792 795 798 799 803 803 806 811 810 809 809 807 813 817 815 809 813 824 820 811 810 812 816 816 818 823 824 826 827 830 833
806 805 804 803 802 801 800 799 797 796 795 793 792 791 791 790 790 790 790 790 789 789 788 788 788 789 790 789 785 780 777 777 778 777 777 779 780 781 782 783 783 784 784 784 784 783 782 782 780 782 789 789 789 792 790 789 789 791 795 800 804 805 806 808 813 813 812 813 811 813 818 817 814 816 821 818 812 811 815 818 819 820 823 824 826 828 830 832
806 805 803 802 801 800 799 798 796 795 794 792 792 791 790 790 789 790 789 789 789 789 788 788 789 790 790 788 782 778 777 779 778 778 779 780 782 782 783 784 784 784 784 784 784 784 785 783 781 788 790 787 791 795 793 786 787 793 794 803 810 808 811 813 814 814 814 818 815 816 827 826 821 821 818 815 812 813 817 820 820 821 823 824 826 828 830 832
806 804 803 802 801 799 798 797 795 794 793 792 791 790 790 789 789 789 789 789 789 789 789 789 789 791 791 785 778 777 778 779 778 779 780 781 782 783 784 785 785 785 785 784 785 786 787 785 784 787 786 787 792 792 789 785 789 796 794 800 809 812 818 817 814 815 815 819 814 819 837 834 824 821 817 814 813 816 820 821 821 822 823 825 826 828 830 831
805 804 802 801 800 799 797 796 795 793 792 791 790 790 789 789 789 789 789 789 789 789 789 790 790 792 790 781 776 777 777 778 779 780 781 782 782 784 785 786 786 787 786 786 786 788 788 786 786 786 785 787 788 787 788 791 792 795 798 797 800 814 824 818 814 816 819 821 814 822 839 835 827 823 816 814 815 817 821 821 821 822 822 824 826 828 829 830
805 803 802 801 799 798 797 796 794 792 792 790 789 789 789 789 789 789 789 789 789 790 789 790 791 791 787 779 776 777 777 778 779 780 781 782 782 783 785 786 787 787 787 787 788 789 789 788 789 791 789 785 787 792 794 797 793 794 812 810 798 812 824 818 815 814 820 823 815 825 841 837 828 824 817 815 816 817 820 820 820 822 822 824 826 827 828 830
804 803 801 800 799 798 796 795 793 792 791 790 789 789 789 789 789 789 789 789 790 790 790 792 791 791 787 779 776 777 777 777 778 780 781 781 782 782 785 786 786 787 788 788 788 789 789 788 790 790 789 788 791 794 795 801 799 798 816 815 798 808 821 819 817 811 814 822 821 825 838 839 829 821 818 816 818 819 820 820 820 822 822 823 826 826 827 830
804 802 801 800 798 797 796 795 793 791 790 790 789 789 789 789 789 790 790 790 791 791 791 791 790 790 786 777 777 778 776 777 778 780 781 782 782 782 784 785 786 787 786 788 789 789 790 790 792 792 791 791 790 790 800 811 808 801 806 803 796 802 809 815 819 813 811 820 825 825 831 836 829 821 820 818 818 820 821 822 821 821 822 823 824 826 827 829
803 801 800 799 798 796 795 794 792 791 790 790 789 790 790 790 790 790 790 791 791 791 792 791 790 791 786 778 777 778 776 777 779 779 781 782 782 783 784 784 784 786 788 790 790 789 792 791 792 798 797 795 792 793 807 812 803 800 799 798 801 802 802 808 813 811 812 819 826 830 833 834 829 824 821 819 819 821 821 821 821 820 822 823 824 825 827 828
802 800 799 798 797 796 795 794 792 791 790 790 790 790 790 790 790 791 791 791 790 788 788 787 786 787 785 778 774 775 775 777 778 779 781 781 782 783 783 784 784 786 791 794 794 791 793 794 797 803 801 798 794 791 798 799 792 795 795 793 798 801 801 801 804 805 808 819 827 830 833 833 831 828 823 819 819 821 820 820 822 822 822 823 824 825 826 828
801 799 798 797 796 795 794 793 792 791 791 790 791 791 790 789 788 788 788 788 785 781 780 780 779 780 779 775 773 775 776 778 778 778 780 781 781 782 783 784 785 789 791 793 796 790 789 800 804 802 796 791 789 787 789 790 788 792 795 796 795 796 800 800 802 804 803 816 826 825 829 832 830 829 824 821 821 821 821 822 823 823 824 824 823 824 825 827
800 799 798 796 796 794 794 793 792 791 791 791 792 790 787 786 787 788 785 782 777 776 778 776 776 778 776 774 774 774 775 777 777 777 780 780 778 783 786 786 791 794 789 787 792 790 792 802 801 794 790 786 787 788 789 789 790 793 797 801 799 797 801 800 801 802 800 813 823 822 828 831 827 827 825 822 824 824 820 822 824 823 823 823 823 824 825 825
799 798 797 796 795 793 793 792 792 791 791 791 791 788 785 785 787 787 786 783 777 775 777 776 777 777 774 774 775 773 775 778 781 779 778 779 778 783 787 787 791 792 787 786 793 798 803 801 792 787 787 788 790 790 790 792 791 794 797 804 806 803 805 802 799 801 801 814 826 825 828 828 823 825 827 824 824 822 817 817 820 821 822 823 823 823 824 826
799 797 796 796 793 793 792 791 791 791 791 791 790 787 785 786 786 785 786 785 780 776 776 776 777 776 773 774 774 774 775 777 782 781 777 779 779 780 785 787 788 788 790 791 793 801 806 796 783 784 789 792 795 793 793 795 791 791 796 805 809 809 812 809 804 803 802 812 822 823 828 828 824 827 828 826 822 818 817 816 816 818 819 821 821 821 823 826
798 796 796 794 793 793 791 791 791 790 790 790 788 787 786 787 786 785 784 782 782 778 774 775 774 773 774 773 773 774 774 772 777 779 776 777 779 779 782 783 786 790 791 788 788 794 796 787 779 786 792 792 796 797 795 796 793 791 794 799 804 807 809 805 803 803 802 808 810 815 833 830 822 833 832 826 825 822 820 820 822 820 816 818 820 820 822 822
796 795 794 793 793 792 791 791 790 790 790 788 787 787 786 786 784 785 785 783 785 780 774 775 774 773 772 772 774 772 771 772 771 773 774 774 776 780 781 778 783 790 789 787 788 789 790 786 783 791 795 793 797 798 794 794 793 794 793 792 795 801 803 801 802 806 810 815 804 807 837 834 813 824 830 825 830 828 822 822 824 821 817 818 821 821 821 820
795 794 793 793 793 791 791 790 788 790 788 785 786 786 785 786 783 785 786 784 788 785 778 777 777 775 772 772 772 769 775 779 770 768 773 773 772 776 783 782 780 785 785 785 787 785 785 786 786 792 796 796 799 797 793 792 793 796 791 786 792 798 802 803 801 806 812 814 803 799 827 840 823 818 821 823 829 827 824 823 820 819 819 819 820 821 821 819
794 793 792 792 792 792 790 788 788 788 785 785 786 785 786 785 783 785 786 791 796 789 780 778 776 776 773 771 770 773 783 781 773 772 772 773 772 771 782 786 784 786 781 785 794 789 786 791 791 792 795 798 801 798 792 792 796 797 788 785 792 796 803 805 800 804 801 800 805 798 807 833 835 819 812 817 824 825 824 823 819 818 819 818 818 818 818 818
793 792 792 791 791 791 789 788 789 785 784 785 784 784 786 782 783 785 789 805 805 785 779 778 774 773 771 769 770 775 777 772 778 781 770 771 775 773 783 785 784 787 781 788 800 792 786 794 795 793 797 799 796 791 788 791 796 794 787 786 789 792 799 799 798 800 795 800 813 803 799 827 838 818 805 811 818 822 823 821 820 818 817 817 816 817 816 816
792 791 790 790 790 789 788 788 787 784 784 784 783 785 783 781 785 783 789 808 802 781 779 778 774 774 772 771 773 773 772 771 778 778 770 774 775 774 781 779 778 787 786 786 792 789 786 788 787 790 796 794 789 785 785 792 794 788 786 788 788 790 791 794 798 798 800 812 815 801 799 823 837 822 811 814 815 815 817 816 817 815 814 815 814 815 815 814
791 790 789 790 789 788 788 786 785 784 783 782 783 783 781 783 786 789 802 809 795 782 779 776 776 777 775 776 778 775 774 776 775 774 776 777 773 773 776 774 775 785 788 787 786 786 785 783 783 787 789 785 783 784 786 789 788 786 789 791 793 795 793 796 798 798 814 823 808 795 793 807 829 826 813 811 805 801 807 812 815 814 811 812 811 812 813 813
789 789 789 788 788 787 786 783 783 783 782 782 783 780 783 784 780 794 812 802 788 784 779 777 779 777 775 778 780 778 777 778 776 778 782 780 779 780 780 782 784 788 794 794 790 788 788 790 789 785 782 782 785 788 788 787 786 790 793 794 804 810 809 811 808 809 829 829 805 793 789 799 822 818 800 797 790 787 796 804 811 814 811 809 808 808 809 810
788 788 788 787 787 786 785 783 782 782 781 781 781 780 783 787 788 798 802 791 791 791 782 782 782 778 778 778 779 780 779 780 779 778 780 781 783 783 783 786 787 796 804 798 794 792 791 790 787 785 782 782 790 793 793 792 791 794 794 799 818 830 834 839 832 825 827 818 801 792 792 804 812 796 783 786 783 781 787 791 800 807 807 804 804 805 805 806
788 787 787 786 785 784 784 782 781 781 781 780 781 779 780 794 806 802 790 788 795 790 781 784 782 779 782 780 782 782 780 783 782 779 780 779 782 784 785 782 780 792 797 791 793 797 796 790 784 789 787 781 787 793 798 799 796 798 797 803 820 832 848 854 839 829 823 809 797 791 797 809 806 789 781 781 779 778 779 783 790 796 797 798 799 801 802 803
787 786 786 785 784 784 782 781 780 779 779 779 779 780 786 803 808 796 787 788 788 783 782 785 782 782 783 781 783 782 782 787 783 781 784 783 786 788 788 787 784 785 786 789 794 793 800 799 787 787 788 781 784 785 784 788 792 794 789 793 806 812 830 840 829 827 823 807 798 800 805 807 802 795 783 777 777 775 775 777 782 788 789 790 794 797 800 802
787 786 786 784 784 783 780 780 779 777 778 778 776 782 797 807 801 791 791 788 783 783 784 783 782 784 785 784 783 781 782 788 784 782 785 783 786 787 786 788 787 785 788 795 795 789 798 798 779 776 778 776 784 780 772 780 792 790 781 791 800 790 799 815 814 811 810 808 807 807 803 791 788 789 778 776 779 774 776 777 778 785 786 788 793 795 798 801
786 785 785 785 783 782 780 779 778 777 777 775 779 791 799 800 795 792 791 787 785 786 786 785 784 784 786 786 786 783 781 784 784 785 786 785 786 788 788 789 786 786 788 790 791 791 800 795 777 777 779 774 777 775 771 781 789 787 788 795 790 775 782 806 813 803 805 820 813 800 798 787 785 791 781 779 783 777 778 778 778 783 784 789 795 794 796 799
786 785 784 784 783 782 780 778 777 777 774 773 786 799 796 792 791 789 787 785 786 785 785 788 788 786 787 787 787 786 782 784 785 785 790 791 791 793 791 788 787 787 785 786 788 786 793 792 779 779 785 776 770 771 772 772 775 786 795 787 778 780 785 796 814 815 817 827 809 794 801 795 793 803 792 783 786 783 780 778 778 783 785 790 793 792 794 795
785 784 783 783 783 781 779 777 776 774 772 778 794 799 793 789 789 787 786 786 785 783 784 787 789 788 786 785 787 785 783 788 787 785 790 793 793 795 792 789 788 786 784 786 788 784 788 794 783 775 781 777 770 777 782 775 770 779 782 771 776 800 803 799 813 820 821 826 810 797 800 793 789 797 793 789 789 786 783 781 781 785 787 789 791 792 794 794
784 783 783 783 782 780 779 778 775 771 774 786 797 797 792 789 787 784 785 785 784 784 785 788 787 786 785 783 786 786 784 787 786 786 792 795 795 795 791 790 789 786 784 784 786 784 785 795 792 777 775 777 777 784 791 786 779 778 778 773 775 790 794 793 799 803 810 818 810 804 805 794 784 782 785 791 790 786 786 785 784 785 786 787 789 792 794 796
782 782 784 783 781 780 778 776 774 775 784 792 794 794 792 789 786 783 783 784 784 785 787 789 786 786 788 785 784 786 785 785 784 786 791 792 795 795 791 791 791 787 785 784 785 784 783 793 795 781 776 782 785 783 781 781 782 786 790 788 784 783 782 785 787 784 793 805 807 812 810 795 784 782 785 791 790 786 786 785 784 783 783 784 786 789 792 796
781 785 786 782 781 781 778 778 781 783 789 793 792 793 793 791 787 784 782 782 783 784 784 787 786 786 789 787 786 787 785 786 786 787 790 790 793 796 793 792 793 789 787 786 785 785 787 791 791 784 782 785 780 771 768 771 772 778 785 785 784 784 786 798 801 784 782 792 796 804 810 798 789 787 785 788 789 788 787 786 785 783 782 784 786 787 788 792
782 787 787 782 782 780 778 783 788 786 788 793 794 793 793 791 789 786 783 781 783 783 782 785 788 788 788 788 787 787 786 788 789 788 790 791 792 795 793 791 791 789 787 787 785 785 786 789 792 787 779 776 774 768 768 771 766 768 774 772 773 777 782 799 807 791 787 790 785 793 808 803 791 785 783 786 787 789 789 788 788 786 784 783 784 784 785 789
784 787 785 782 782 779 781 789 791 788 791 794 793 792 791 790 789 788 786 785 785 785 785 787 789 789 790 789 788 788 788 793 794 792 792 794 793 795 793 790 791 788 786 787 786 787 789 792 797 793 779 773 774 771 768 770 771 773 773 767 769 773 772 779 783 779 786 789 788 804 814 802 790 786 785 787 788 791 792 789 789 790 788 785 785 785 787 790
785 785 782 782 781 779 783 792 793 793 795 793 792 793 792 791 792 792 791 791 790 789 789 791 791 790 791 789 788 790 791 796 799 795 793 795 795 794 791 789 790 787 787 789 789 789 793 796 799 802 799 793 790 787 782 778 776 777 775 771 774 773 770 774 774 777 788 785 784 803 809 796 791 790 789 791 792 794 794 791 790 792 792 791 790 789 791 793
786 787 784 781 779 780 785 790 790 793 797 796 796 796 794 794 795 794 794 793 791 790 792 793 791 789 789 789 790 791 789 792 799 797 795 795 794 793 791 790 789 786 788 791 788 787 793 797 799 806 811 809 807 804 796 786 780 779 779 780 780 777 776 780 782 789 797 789 783 792 795 793 793 792 792 794 794 796 796 793 793 794 795 795 794 795 796 796
787 790 789 784 780 782 787 788 787 792 796 797 799 799 797 798 796 793 793 794 793 791 792 792 790 789 791 791 793 795 791 789 794 797 798 797 795 793 791 790 788 788 791 793 788 787 792 795 795 800 803 804 806 802 792 785 785 787 786 785 783 780 779 781 786 791 790 789 791 788 785 793 798 794 794 794 794 798 799 796 796 797 797 797 797 798 799 798
788 792 793 792 790 788 789 790 789 792 794 796 801 802 799 799 798 795 794 795 794 793 793 792 791 793 796 795 796 799 797 793 795 798 800 799 796 793 790 788 787 789 791 790 787 787 793 798 795 794 794 794 793 792 788 786 788 789 788 787 784 783 783 784 788 787 781 788 797 786 778 789 793 789 792 793 793 798 799 797 798 798 799 800 799 800 801 801
790 793 793 795 797 794 793 794 793 794 795 796 800 802 801 800 801 801 799 796 794 793 795 797 796 795 797 797 798 801 802 800 801 802 801 800 798 796 792 789 787 786 787 786 786 787 794 799 795 792 793 791 787 786 786 787 788 788 788 788 785 784 786 787 787 785 784 792 797 788 781 783 782 783 788 789 791 797 797 795 797 798 800 801 801 802 803 804
790 793 793 794 796 796 796 797 796 795 797 799 801 803 802 802 804 805 801 799 799 797 797 802 803 798 796 796 798 803 806 806 808 807 804 802 801 800 800 798 791 785 785 787 788 789 795 800 797 794 794 790 786 785 785 786 787 788 789 789 786 785 786 788 788 787 787 789 787 784 784 783 780 782 785 785 790 794 794 794 798 801 802 802 802 803 804 806
793 795 795 794 795 796 797 797 796 797 798 800 803 805 803 803 805 805 803 803 805 803 799 803 804 800 797 797 799 804 807 806 807 808 805 804 803 801 803 804 798 790 788 791 791 790 796 802 798 795 797 794 787 784 784 786 788 789 792 791 787 787 787 788 791 790 789 790 785 782 787 790 784 781 784 788 792 794 794 797 800 802 802 803 804 804 805 807
798 798 797 795 797 799 799 797 796 797 799 800 803 805 805 805 805 805 805 804 805 805 803 803 804 801 799 800 803 805 805 803 804 804 802 802 803 802 802 802 799 797 794 795 795 792 795 800 796 797 805 802 791 790 789 786 785 790 796 796 792 792 793 793 794 794 793 794 791 788 792 794 789 786 789 795 797 797 797 798 801 803 802 803 804 805 806 808
800 800 798 796 798 799 798 797 797 799 800 801 803 804 804 805 804 805 809 807 803 804 804 803 803 801 802 806 808 806 803 801 801 800 799 799 798 798 799 798 797 800 799 798 798 796 798 801 796 800 812 807 795 794 793 791 797 803 803 801 797 795 794 794 795 795 794 793 796 798 795 791 790 791 796 802 803 800 797 798 801 803 803 804 806 808 810 811